Location: Vihti�l�
(61.3833°N, 23.0667°E)
Time: 02:59:08
(UTC+00:00)

Cosmos 2074 Rocket - Pass Details

Date: 29 November 2020
Orbit: 968 x 985 km, 82.9° (Epoch: 19 January)

Event Time Altitude Azimuth Distance (km) Brightness Sun altitude
Rises 05:33:36 0° 225° (SW) 3,657 6.8 -10.1°
Reaches altitude 10° 05:36:19 10° 234° (SW) 2,713 6.1 -9.8°
Maximum altitude 05:42:03 38° 301° (WNW) 1,448 4.4 -9.2°
Drops below altitude 10° 05:47:50 10° 9° (N) 2,729 6.1 -8.6°
Sets 05:50:35 0° 18° (NNE) 3,682 6.9 -8.3°
